COSMOS 2539

Last updated on Tue Sep 22 2026 00:03:15 GMT+0000 (Coordinated Universal Time)

1 44457U 19048A 26264.34893006 .00000077 00000+0 00000+0 0 9991 2 44457 0.0152 128.6787 0000503 310.6351 58.5277 1.00272491 26198
UTC large
Height (km)
Speed (km/s)
/
Latitude / Longitude
Inclination (degrees)
Orbital Period (minutes)
Azimuth
Elevation
Range (km)
Doppler Factor

Next 0 passes for location: London (51.5072 / 0.1276)

No passes found over London.
COSMOS 2539